Weather in Ozerki

Russia / Mari El Republic     56°23′18″N   46°31′01″E
temp.,
°C
wind,
m/s
gust,
m/s
humid.,
%
clouds,
%
prec.,
mm/h
press.,
hPa
HPBL,
m
27 february, sat
sat2700:00−10ese4895100 2.3 997318
03:00−10e3696100 2.9 996232
06:00−13ne379594 0.3 996315
09:00−12nne489397 0.7 999482
12:00−12nne5889100 0.1 1001643
15:00−13nne5989100 0.1 1005733
18:00−14n3992100 0.1 1007449
21:00−17nnw389590 0.1 1009184
28 february, sun
sun2800:00−19nnw37973 0.0 1009158
03:00−20nnw37975 0.0 1010159
06:00−22nnw25970 0.0 101179
09:00−18nnw369528 0.0 1012237
12:00−13nnw359290 0.0 1012431
15:00−10nnw368995 0.0 1013565
18:00−15nnw239598 0.0 101529
21:00−17nnw229787 0.0 101820
1 march, mon
mon100:00−19nnw229868 0.0 101920
03:00−20nw229962 0.0 102120
06:00−21nw1210027 0.0 102220
09:00−16wsw129541 0.0 1022119
12:00−11wsw239086 0.0 1022401
15:00−8sw359293 0.1 1020495
18:00−10ssw3896100 0.1 1018300
21:00−9sw4995100 0.1 1015325
2 march, tue
tue200:00−6ssw51194100 0.1 1010506
03:00−4sw61395100 1.3 1006668
06:00−1sw51197100 1.5 1001649
09:000w4999100 3.3 999525
12:000wnw48100100 0.6 998606
15:000w38100100 0.9 998515
18:00−1nw41288100 0.4 999612
21:00−2nw499699 0.5 1001418
3 march, wed
wed300:00−3nw4109496 0.2 1002470
03:00−5nw399595 0.4 1002357
06:00−4nw399697 0.3 1003482
09:00−4nw499497 0.6 1005558
12:00−3nnw6990100 0.2 1007805
15:00−3nnw598399 0.3 1009930
18:00−6nw4129112 0.0 1010453
21:00−7nw4119347 0.0 1012362